Guest (not logged in) | Log in

Project information

Duration: 2018-12-20 00:00 onwards
Historical data from: 1995-01-01
Position: 0° 0' 0.00" N
0° 0' 0.00" E
0 m A.S.L
Contact: Carsten Weber Kock
Description: Zephir 317 måler vind i Roskilde

Measurements

NameHeight [m]DurationLatest (2019-05-18 23:50)
Dir_100m 0.00 2018-12-20 14:20 onwards 98.24 Deg
Dir_10m 0.00 2018-12-20 14:20 onwards 237.06 Deg
Dir_125m 0.00 2018-12-20 14:20 onwards 104.16 Deg
Dir_150m 0.00 2018-12-20 14:20 onwards 100.19 Deg
Dir_200m 0.00 2018-12-20 14:20 onwards 101.08 Deg
Dir_20m 0.00 2018-12-20 14:20 onwards 68.88 Deg
Dir_30m 0.00 2018-12-20 14:20 onwards 91.82 Deg
Dir_38m 0.00 2018-12-20 14:20 onwards 167.54 Deg
Dir_50m 0.00 2018-12-20 14:20 onwards 141.32 Deg
Dir_60m 0.00 2018-12-20 14:20 onwards 63.11 Deg
Dir_800m 0.00 2018-12-20 14:20 onwards 108.25 Deg
Dir_80m 0.00 2018-12-20 14:20 onwards 237.06 Deg
Humidity 0.00 2018-12-20 14:20 onwards -
MetDir 0.00 2018-12-20 14:20 onwards 210.71 Deg
Metwsp 0.00 2018-12-20 14:20 onwards 1.11 m/s
Pressure 0.00 2018-12-20 14:20 onwards 1003.90 mbar
Temp 0.00 2018-12-20 14:20 onwards 11.40 DegC
TI_100m 0.00 2018-12-20 14:20 onwards 0.52 -
TI_10m 0.00 2018-12-20 14:20 onwards 1.13 -
TI_125m 0.00 2018-12-20 14:20 onwards 0.71 -
TI_150m 0.00 2018-12-20 14:20 onwards 0.46 -
TI_200m 0.00 2018-12-20 14:20 onwards 0.51 -
TI_20m 0.00 2018-12-20 14:20 onwards 1.07 -
TI_30m 0.00 2018-12-20 14:20 onwards 1.09 -
TI_38m 0.00 2018-12-20 14:20 onwards 1.09 -
TI_50m 0.00 2018-12-20 14:20 onwards 1.10 -
TI_60m 0.00 2018-12-20 14:20 onwards 1.06 -
TI_800m 0.00 2018-12-20 14:20 onwards 0.83 -
TI_80m 0.00 2018-12-20 14:20 onwards 0.63 -
Vert_100m 0.00 2018-12-20 14:20 onwards -
Vert_10m 0.00 2018-12-20 14:20 onwards -
Vert_125m 0.00 2018-12-20 14:20 onwards -
Vert_150m 0.00 2018-12-20 14:20 onwards -
Vert_200m 0.00 2018-12-20 14:20 onwards -
Vert_20m 0.00 2018-12-20 14:20 onwards -
Vert_30m 0.00 2018-12-20 14:20 onwards -
Vert_38m 0.00 2018-12-20 14:20 onwards -
Vert_50m 0.00 2018-12-20 14:20 onwards -
Vert_60m 0.00 2018-12-20 14:20 onwards -
Vert_800m 0.00 2018-12-20 14:20 onwards -
Vert_80m 0.00 2018-12-20 14:20 onwards -
Wsp_100m 0.00 2018-12-20 14:20 onwards 7.73 m/s
Wsp_10m 0.00 2018-12-20 14:20 onwards 10.87 m/s
Wsp_125m 0.00 2018-12-20 14:20 onwards 8.81 m/s
Wsp_150m 0.00 2018-12-20 14:20 onwards 8.58 m/s
Wsp_200m 0.00 2018-12-20 14:20 onwards 8.69 m/s
Wsp_20m 0.00 2018-12-20 14:20 onwards 11.11 m/s
Wsp_30m 0.00 2018-12-20 14:20 onwards 11.26 m/s
Wsp_38m 0.00 2018-12-20 14:20 onwards 11.45 m/s
Wsp_50m 0.00 2018-12-20 14:20 onwards 11.69 m/s
Wsp_60m 0.00 2018-12-20 14:20 onwards 11.47 m/s
Wsp_800m 0.00 2018-12-20 14:20 onwards 10.77 m/s
Wsp_80m 0.00 2018-12-20 14:20 onwards 7.83 m/s
Comments and help requests to webmaster
© 2019